• In Slovakia
  • List of Countries
  • For 7 days
  • Water Temperature
  • Satellite Maps
  • Weather Map
  • Weather Widgets
  • user-avatar
    Login

    Hourly Weather Gold Coast

    Today, 17 January, Wednesday

    Time Temperature Precipitation Wind Pressure Humidity
    00:00 +18°C° 0 mm 7 mps 758 mmHg 75%
    01:00 +19°C° 0 mm 6 mps 758 mmHg 77%
    02:00 +17°C° 0 mm 6 mps 757 mmHg 78%
    03:00 +17°C° 0 mm 6 mps 757 mmHg 78%
    04:00 +16°C° 0 mm 6 mps 757 mmHg 77%
    05:00 +17°C° 0 mm 5 mps 757 mmHg 71%
    06:00 +19°C° 0 mm 5 mps 758 mmHg 65%
    07:00 +20°C° 0 mm 4 mps 758 mmHg 58%
    08:00 +23°C° 0 mm 4 mps 758 mmHg 49%
    09:00 +26°C° 0 mm 4 mps 758 mmHg 41%
    10:00 +29°C° 0 mm 3 mps 758 mmHg 32%
    11:00 +30°C° 0 mm 3 mps 758 mmHg 29%
    12:00 +33°C° 0 mm 4 mps 758 mmHg 26%
    13:00 +34°C° 0 mm 4 mps 757 mmHg 23%
    14:00 +33°C° 0 mm 4 mps 757 mmHg 27%
    15:00 +32°C° 0 mm 5 mps 757 mmHg 31%
    16:00 +29°C° 0 mm 6 mps 757 mmHg 37%
    17:00 +27°C° 0 mm 5 mps 758 mmHg 46%
    18:00 +25°C° 0 mm 5 mps 758 mmHg 55%
    19:00 +23°C° 0 mm 5 mps 758 mmHg 65%
    20:00 +22°C° 0 mm 5 mps 759 mmHg 69%
    21:00 +21°C° 0 mm 5 mps 759 mmHg 74%
    22:00 +20°C° 0 mm 4 mps 760 mmHg 79%
    23:00 +20°C° 0 mm 4 mps 760 mmHg 81%

    Tomorrow, 18 January, Thursday

    Time Temperature Precipitation Wind Pressure Humidity
    00:00 +19°C° 0 mm 4 mps 760 mmHg 83%
    01:00 +19°C° 0 mm 4 mps 760 mmHg 85%
    02:00 +19°C° 0 mm 4 mps 759 mmHg 86%
    03:00 +18°C° 0 mm 4 mps 759 mmHg 88%
    04:00 +18°C° 0 mm 4 mps 759 mmHg 89%
    05:00 +19°C° 0 mm 4 mps 759 mmHg 83%
    06:00 +20°C° 0 mm 4 mps 760 mmHg 78%
    07:00 +21°C° 0 mm 4 mps 760 mmHg 72%
    08:00 +25°C° 0 mm 4 mps 760 mmHg 58%
    09:00 +27°C° 0 mm 4 mps 760 mmHg 45%
    10:00 +30°C° 0 mm 4 mps 760 mmHg 31%
    11:00 +32°C° 0 mm 4 mps 759 mmHg 29%
    12:00 +33°C° 0 mm 4 mps 759 mmHg 26%
    13:00 +34°C° 0 mm 5 mps 758 mmHg 24%
    14:00 +34°C° 0 mm 5 mps 758 mmHg 28%
    15:00 +33°C° 0 mm 5 mps 757 mmHg 31%
    16:00 +33°C° 0 mm 6 mps 757 mmHg 35%
    17:00 +29°C° 0 mm 5 mps 757 mmHg 45%
    18:00 +27°C° 0 mm 5 mps 757 mmHg 55%
    19:00 +23°C° 0 mm 4 mps 758 mmHg 65%
    20:00 +22°C° 0 mm 4 mps 758 mmHg 71%
    21:00 +21°C° 0 mm 4 mps 759 mmHg 76%
    22:00 +20°C° 0 mm 3 mps 759 mmHg 81%
    23:00 +19°C° 0 mm 3 mps 759 mmHg 83%

    Day after tomorrow, 19 January, Friday

    Time Temperature Precipitation Wind Pressure Humidity
    00:00 +19°C° 0 mm 3 mps 758 mmHg 84%
    01:00 +18°C° 0 mm 3 mps 758 mmHg 86%
    02:00 +18°C° 0 mm 3 mps 758 mmHg 87%
    03:00 +18°C° 0 mm 3 mps 757 mmHg 88%
    04:00 +17°C° 0 mm 3 mps 757 mmHg 89%
    05:00 +19°C° 0 mm 3 mps 757 mmHg 82%
    06:00 +20°C° 0 mm 3 mps 758 mmHg 76%
    07:00 +22°C° 0 mm 3 mps 758 mmHg 69%
    08:00 +26°C° 0 mm 3 mps 758 mmHg 57%
    09:00 +29°C° 0 mm 3 mps 758 mmHg 46%
    10:00 +33°C° 0 mm 3 mps 757 mmHg 34%
    11:00 +34°C° 0 mm 4 mps 757 mmHg 31%
    12:00 +35°C° 0 mm 4 mps 756 mmHg 28%
    13:00 +37°C° 0 mm 4 mps 756 mmHg 24%
    14:00 +36°C° 0 mm 5 mps 755 mmHg 28%
    15:00 +35°C° 0 mm 5 mps 755 mmHg 32%
    16:00 +34°C° 0 mm 5 mps 754 mmHg 35%
    17:00 +32°C° 0 mm 5 mps 755 mmHg 45%
    18:00 +28°C° 0 mm 5 mps 755 mmHg 55%
    19:00 +26°C° 0 mm 4 mps 756 mmHg 64%
    20:00 +23°C° 0 mm 4 mps 756 mmHg 70%
    21:00 +22°C° 0 mm 3 mps 756 mmHg 76%
    22:00 +21°C° 0 mm 3 mps 757 mmHg 83%
    23:00 +20°C° 0 mm 3 mps 756 mmHg 84%

    20 January, Saturday

    Time Temperature Precipitation Wind Pressure Humidity
    00:00 +20°C° 0 mm 3 mps 756 mmHg 86%
    01:00 +19°C° 0 mm 3 mps 755 mmHg 87%
    02:00 +19°C° 0 mm 3 mps 755 mmHg 88%
    03:00 +19°C° 0 mm 3 mps 755 mmHg 89%
    04:00 +18°C° 0 mm 3 mps 755 mmHg 90%
    05:00 +20°C° 0 mm 3 mps 755 mmHg 84%
    06:00 +21°C° 0 mm 4 mps 756 mmHg 77%
    07:00 +22°C° 0 mm 4 mps 756 mmHg 71%
    08:00 +26°C° 0 mm 4 mps 756 mmHg 61%
    09:00 +29°C° 0 mm 4 mps 756 mmHg 51%
    10:00 +33°C° 0 mm 4 mps 756 mmHg 41%
    11:00 +34°C° 0 mm 4 mps 755 mmHg 38%
    12:00 +35°C° 0 mm 5 mps 755 mmHg 35%
    13:00 +36°C° 0 mm 5 mps 754 mmHg 32%
    14:00 +36°C° 0 mm 5 mps 754 mmHg 35%
    15:00 +35°C° 0 mm 6 mps 754 mmHg 38%
    16:00 +34°C° 0 mm 6 mps 753 mmHg 41%
    17:00 +32°C° 0 mm 6 mps 754 mmHg 50%
    18:00 +29°C° 0 mm 6 mps 754 mmHg 58%
    19:00 +27°C° 0 mm 6 mps 755 mmHg 67%
    20:00 +26°C° 0 mm 6 mps 755 mmHg 73%
    21:00 +23°C° 0 mm 5 mps 755 mmHg 80%
    22:00 +22°C° 0 mm 5 mps 756 mmHg 87%
    23:00 +22°C° 0 mm 5 mps 755 mmHg 88%

    21 January, Sunday

    Time Temperature Precipitation Wind Pressure Humidity
    00:00 +22°C° 0 mm 4 mps 755 mmHg 90%
    01:00 +21°C° 0 mm 4 mps 755 mmHg 92%
    02:00 +21°C° 0 mm 4 mps 755 mmHg 92%
    03:00 +21°C° 0 mm 4 mps 754 mmHg 93%
    04:00 +21°C° 0 mm 4 mps 754 mmHg 94%
    05:00 +22°C° 0 mm 4 mps 755 mmHg 90%
    06:00 +23°C° 0 mm 4 mps 755 mmHg 85%
    07:00 +25°C° 0 mm 4 mps 755 mmHg 81%
    08:00 +27°C° 0 mm 4 mps 755 mmHg 72%
    09:00 +29°C° 0 mm 4 mps 755 mmHg 62%
    10:00 +31°C° 0 mm 3 mps 755 mmHg 53%
    11:00 +33°C° 0 mm 4 mps 755 mmHg 50%
    12:00 +34°C° 0 mm 4 mps 754 mmHg 48%
    13:00 +34°C° 0 mm 4 mps 754 mmHg 45%
    14:00 +34°C° 0 mm 4 mps 753 mmHg 45%
    15:00 +34°C° 0 mm 4 mps 753 mmHg 46%
    16:00 +34°C° 0 mm 4 mps 753 mmHg 46%
    17:00 +32°C° 0 mm 4 mps 753 mmHg 55%
    18:00 +29°C° 0 mm 4 mps 754 mmHg 63%
    19:00 +27°C° 0 mm 4 mps 754 mmHg 72%
    20:00 +26°C° 0 mm 3 mps 754 mmHg 78%
    21:00 +25°C° 0 mm 3 mps 755 mmHg 84%
    22:00 +24°C° 0 mm 2 mps 755 mmHg 91%
    23:00 +24°C° 0 mm 2 mps 755 mmHg 92%

    22 January, Monday

    Time Temperature Precipitation Wind Pressure Humidity
    00:00 +23°C° 0 mm 1 mps 754 mmHg 93%
    01:00 +23°C° 0 mm 1 mps 754 mmHg 94%
    02:00 +23°C° 0 mm 1 mps 754 mmHg 94%
    03:00 +23°C° 0 mm 1 mps 753 mmHg 95%
    04:00 +22°C° 0 mm 1 mps 753 mmHg 96%
    05:00 +24°C° 0 mm 1 mps 754 mmHg 91%
    06:00 +25°C° 0 mm 1 mps 754 mmHg 87%
    07:00 +26°C° 0 mm 1 mps 754 mmHg 82%
    08:00 +28°C° 0 mm 1 mps 754 mmHg 70%
    09:00 +31°C° 0 mm 1 mps 754 mmHg 57%
    10:00 +34°C° 0 mm 1 mps 754 mmHg 44%
    11:00 +36°C° 0 mm 2 mps 753 mmHg 41%
    12:00 +37°C° 0 mm 3 mps 753 mmHg 38%
    13:00 +38°C° 0 mm 3 mps 752 mmHg 35%
    14:00 +37°C° 0 mm 4 mps 752 mmHg 40%
    15:00 +36°C° 0 mm 5 mps 751 mmHg 45%
    16:00 +34°C° 0 mm 5 mps 751 mmHg 50%
    17:00 +32°C° 0 mm 5 mps 752 mmHg 58%
    18:00 +29°C° 0 mm 5 mps 752 mmHg 65%
    19:00 +27°C° 0 mm 4 mps 753 mmHg 73%
    20:00 +26°C° 0 mm 4 mps 753 mmHg 79%
    21:00 +25°C° 0 mm 4 mps 754 mmHg 84%
    22:00 +25°C° 0 mm 3 mps 754 mmHg 89%
    23:00 +25°C° 0 mm 3 mps 754 mmHg 89%
    Show more